• In Romania
  • List of Countries
  • For 7 days
  • Water Temperature
  • Satellite Maps
  • Weather Map
  • Weather Widgets
  • user-avatar
    Login

    Hourly Weather Shusha

    Today, 17 January, Tuesday

    Time Temperature Precipitation Wind Pressure Humidity
    00:00 -3°C° 0 mm 1 mps 661 mmHg 77%
    01:00 -3°C° 0 mm 1 mps 661 mmHg 76%
    02:00 -3°C° 0 mm 1 mps 661 mmHg 76%
    03:00 -3°C° 0 mm 1 mps 661 mmHg 76%
    04:00 -3°C° 0 mm 1 mps 661 mmHg 76%
    05:00 -3°C° 0 mm 1 mps 661 mmHg 76%
    06:00 -3°C° 0 mm 1 mps 661 mmHg 76%
    07:00 -2°C° 0 mm 1 mps 661 mmHg 72%
    08:00 0°C° 0 mm 1 mps 662 mmHg 68%
    09:00 +1°C° 0 mm 1 mps 662 mmHg 64%
    10:00 +2°C° 0 mm 1 mps 662 mmHg 61%
    11:00 +3°C° 0 mm 1 mps 663 mmHg 58%
    12:00 +5°C° 0 mm 1 mps 663 mmHg 56%
    13:00 +5°C° 0 mm 1 mps 662 mmHg 58%
    14:00 +5°C° 0 mm 1 mps 662 mmHg 60%
    15:00 +4°C° 0 mm 1 mps 662 mmHg 62%
    16:00 +2°C° 0 mm 1 mps 661 mmHg 70%
    17:00 0°C° 0 mm 1 mps 661 mmHg 79%
    18:00 -3°C° 0 mm 0 mps 661 mmHg 87%
    19:00 -2°C° 0 mm 1 mps 661 mmHg 87%
    20:00 -2°C° 0 mm 1 mps 661 mmHg 87%
    21:00 -2°C° 0 mm 1 mps 661 mmHg 86%
    22:00 -2°C° 0 mm 1 mps 661 mmHg 86%
    23:00 -2°C° 0 mm 1 mps 660 mmHg 85%

    Tomorrow, 18 January, Wednesday

    Time Temperature Precipitation Wind Pressure Humidity
    00:00 -2°C° 0 mm 1 mps 660 mmHg 84%
    01:00 -2°C° 0 mm 1 mps 660 mmHg 84%
    02:00 -3°C° 0 mm 1 mps 660 mmHg 84%
    03:00 -3°C° 0 mm 1 mps 660 mmHg 84%
    04:00 -3°C° 0 mm 1 mps 660 mmHg 85%
    05:00 -3°C° 0 mm 1 mps 660 mmHg 85%
    06:00 -3°C° 0 mm 1 mps 660 mmHg 85%
    07:00 -2°C° 0 mm 1 mps 661 mmHg 81%
    08:00 -1°C° 0 mm 0 mps 661 mmHg 78%
    09:00 0°C° 0 mm 0 mps 662 mmHg 74%
    10:00 +2°C° 0 mm 1 mps 662 mmHg 71%
    11:00 +3°C° 0 mm 1 mps 662 mmHg 68%
    12:00 +4°C° 0 mm 1 mps 662 mmHg 65%
    13:00 +4°C° 0 mm 1 mps 662 mmHg 67%
    14:00 +4°C° 0 mm 1 mps 662 mmHg 69%
    15:00 +4°C° 0 mm 1 mps 661 mmHg 71%
    16:00 +2°C° 0 mm 1 mps 661 mmHg 78%
    17:00 +1°C° 0 mm 1 mps 661 mmHg 86%
    18:00 -2°C° 0 mm 0 mps 661 mmHg 93%
    19:00 -2°C° 0 mm 0 mps 661 mmHg 93%
    20:00 -2°C° 0 mm 0 mps 661 mmHg 93%
    21:00 -2°C° 0 mm 0 mps 661 mmHg 93%
    22:00 -2°C° 0 mm 0 mps 661 mmHg 93%
    23:00 -3°C° 0 mm 0 mps 661 mmHg 93%

    Day after tomorrow, 19 January, Thursday

    Time Temperature Precipitation Wind Pressure Humidity
    00:00 -3°C° 0 mm 0 mps 661 mmHg 93%
    01:00 -3°C° 0 mm 0 mps 661 mmHg 92%
    02:00 -3°C° 0 mm 0 mps 661 mmHg 92%
    03:00 -2°C° 0 mm 1 mps 661 mmHg 92%
    04:00 -2°C° 0 mm 1 mps 661 mmHg 92%
    05:00 -2°C° 0 mm 1 mps 661 mmHg 92%
    06:00 -2°C° 0 mm 1 mps 661 mmHg 92%
    07:00 -1°C° 0 mm 1 mps 661 mmHg 88%
    08:00 -1°C° 0 mm 0 mps 662 mmHg 84%
    09:00 0°C° 0 mm 0 mps 662 mmHg 81%
    10:00 +2°C° 0 mm 1 mps 662 mmHg 76%
    11:00 +3°C° 0 mm 1 mps 662 mmHg 72%
    12:00 +4°C° 0 mm 1 mps 662 mmHg 67%
    13:00 +4°C° 0 mm 1 mps 662 mmHg 67%
    14:00 +4°C° 0 mm 1 mps 662 mmHg 68%
    15:00 +4°C° 0 mm 1 mps 662 mmHg 68%
    16:00 +2°C° 0 mm 1 mps 661 mmHg 75%
    17:00 +1°C° 0 mm 1 mps 661 mmHg 83%
    18:00 -2°C° 0 mm 0 mps 661 mmHg 90%
    19:00 -2°C° 0 mm 0 mps 661 mmHg 90%
    20:00 -3°C° 0 mm 0 mps 661 mmHg 91%
    21:00 -2°C° 0 mm 1 mps 661 mmHg 92%
    22:00 -3°C° 0 mm 0 mps 662 mmHg 92%
    23:00 -3°C° 0 mm 0 mps 662 mmHg 92%

    20 January, Friday

    Time Temperature Precipitation Wind Pressure Humidity
    00:00 -3°C° 0 mm 0 mps 662 mmHg 93%
    01:00 -4°C° 0 mm 0 mps 662 mmHg 94%
    02:00 -4°C° 0 mm 0 mps 662 mmHg 94%
    03:00 -3°C° 0 mm 1 mps 662 mmHg 95%
    04:00 -3°C° 0 mm 1 mps 662 mmHg 96%
    05:00 -3°C° 0 mm 1 mps 662 mmHg 96%
    06:00 -3°C° 0 mm 1 mps 663 mmHg 97%
    07:00 -2°C° 0 mm 1 mps 663 mmHg 94%
    08:00 -1°C° 0 mm 1 mps 664 mmHg 90%
    09:00 0°C° 0 mm 1 mps 665 mmHg 87%
    10:00 0°C° 0 mm 1 mps 665 mmHg 83%
    11:00 -1°C° 0 mm 2 mps 665 mmHg 78%
    12:00 +1°C° 0 mm 2 mps 665 mmHg 73%
    13:00 +1°C° 0.1 mm 2 mps 664 mmHg 75%
    14:00 -1°C° 0.1 mm 2 mps 664 mmHg 76%
    15:00 -1°C° 0.1 mm 2 mps 664 mmHg 78%
    16:00 -2°C° 0.1 mm 2 mps 664 mmHg 82%
    17:00 -1°C° 0.1 mm 1 mps 664 mmHg 87%
    18:00 -2°C° 0.1 mm 1 mps 663 mmHg 91%
    19:00 -2°C° 0.1 mm 1 mps 663 mmHg 92%
    20:00 -2°C° 0.1 mm 1 mps 663 mmHg 93%
    21:00 -3°C° 0.1 mm 1 mps 664 mmHg 94%
    22:00 -3°C° 0.1 mm 1 mps 663 mmHg 95%
    23:00 -4°C° 0.1 mm 0 mps 663 mmHg 95%

    21 January, Saturday

    Time Temperature Precipitation Wind Pressure Humidity
    00:00 -5°C° 0.1 mm 0 mps 663 mmHg 96%
    01:00 -5°C° 0.1 mm 0 mps 663 mmHg 95%
    02:00 -5°C° 0.1 mm 0 mps 663 mmHg 95%
    03:00 -5°C° 0.1 mm 0 mps 662 mmHg 95%
    04:00 -5°C° 0 mm 0 mps 662 mmHg 95%
    05:00 -6°C° 0 mm 0 mps 662 mmHg 96%
    06:00 -6°C° 0 mm 0 mps 662 mmHg 96%
    07:00 -5°C° 0 mm 0 mps 662 mmHg 91%
    08:00 -3°C° 0 mm 0 mps 663 mmHg 86%
    09:00 -2°C° 0 mm 0 mps 664 mmHg 80%
    10:00 0°C° 0 mm 1 mps 663 mmHg 76%
    11:00 +1°C° 0 mm 1 mps 663 mmHg 71%
    12:00 +2°C° 0 mm 1 mps 663 mmHg 66%
    13:00 +2°C° 0 mm 1 mps 663 mmHg 67%
    14:00 +2°C° 0 mm 1 mps 663 mmHg 68%
    15:00 +2°C° 0 mm 1 mps 662 mmHg 69%
    16:00 0°C° 0 mm 1 mps 662 mmHg 76%
    17:00 -1°C° 0 mm 1 mps 662 mmHg 83%
    18:00 -4°C° 0 mm 0 mps 662 mmHg 90%
    19:00 -4°C° 0 mm 0 mps 662 mmHg 91%
    20:00 -4°C° 0 mm 0 mps 662 mmHg 91%
    21:00 -5°C° 0 mm 0 mps 662 mmHg 92%
    22:00 -5°C° 0 mm 0 mps 662 mmHg 92%
    23:00 -5°C° 0 mm 0 mps 662 mmHg 92%

    22 January, Sunday

    Time Temperature Precipitation Wind Pressure Humidity
    00:00 -5°C° 0 mm 0 mps 662 mmHg 92%
    01:00 -5°C° 0 mm 0 mps 663 mmHg 93%
    02:00 -6°C° 0 mm 0 mps 663 mmHg 93%
    03:00 -6°C° 0 mm 0 mps 663 mmHg 93%
    04:00 -6°C° 0 mm 0 mps 663 mmHg 93%
    05:00 -6°C° 0 mm 0 mps 663 mmHg 93%
    06:00 -6°C° 0 mm 0 mps 664 mmHg 93%
    07:00 -5°C° 0 mm 0 mps 665 mmHg 87%
    08:00 -3°C° 0 mm 0 mps 666 mmHg 81%
    09:00 -2°C° 0 mm 0 mps 667 mmHg 75%
    10:00 -1°C° 0 mm 0 mps 667 mmHg 71%
    11:00 +1°C° 0 mm 1 mps 667 mmHg 66%
    12:00 +1°C° 0 mm 1 mps 667 mmHg 61%
    13:00 +1°C° 0.1 mm 1 mps 667 mmHg 62%
    14:00 +1°C° 0.1 mm 1 mps 667 mmHg 63%
    15:00 +1°C° 0.1 mm 1 mps 667 mmHg 63%
    16:00 0°C° 0.1 mm 1 mps 667 mmHg 70%
    17:00 -1°C° 0.1 mm 1 mps 667 mmHg 78%
    18:00 -3°C° 0.1 mm 1 mps 667 mmHg 85%
    19:00 -3°C° 0.1 mm 1 mps 668 mmHg 86%
    20:00 -3°C° 0.1 mm 1 mps 668 mmHg 87%
    21:00 -4°C° 0.1 mm 1 mps 668 mmHg 88%
    22:00 -4°C° 0.1 mm 1 mps 668 mmHg 88%
    23:00 -4°C° 0.1 mm 1 mps 668 mmHg 88%
    Show more